map of GJT home
Great Circle Mapper logo
GJT - Airport
Location
City:  Grand Junction, Colorado, United States
Name:Grand Junction Regional
Old (Alt.):Walker Field
ICAO / IATA:KGJT / GJT
FAA:GJT

Details
Type:Airport (Part 139 Class I)
Use:Public/Civil
Latitude:3907'21"N (39.122412)
Longitude:10831'36"W (-108.526734)
Datum:WGS 1984
Elevation:4858 ft (1481 m)
Runways:2
Longest:10501 × 150 ft (3201 × 45.5 m), paved

Time
Time Zone:UTC-7 (DST-6)
Local Time:

Weather
METAR:KGJT 241553Z 14009KT 10SM CLR 14/03 A3032 RMK AO2 SLP232 T01440033
TAF:KGJT 241138Z 2412/2512 14007KT P6SM SCT250
FM241900 28005KT P6SM SKC
FM250100 08005KT P6SM SKC
FM250700 11010KT P6SM SKC

Related Locations
Nearby:
Farthest:RRG: 11013 mi / 17723 km
Plaine Corail, Rodrigues Island, MU

Find:

   beyond  
but within

Other Information
Maps:
Delays:
NOTAMs:
Links:
Sources:

  
flag of United States
flag of Colorado
  

Airport Diagram

Airport diagram for GJT

Airport diagram PDF

Sectional Chart

Flight Planning
at skyvector.com

Satellite Image

Google Maps Satellite View

 

Copyright © 2004-2014 Karl L. Swartz. All rights reserved.
The Great Circle Mapper name and logo are trademarks of the Great Circle Mapper.
All other trademarks mentioned herein belong to their respective owners.
Please see credits for attibutions and further copyright information.

  Follow gcmap on Facebook Follow gcmap on Twitter

hCard Microformat

Geo Microformat